Theta_e
311 308 305 308 310 309 309 311 309 308 309 312 312 312 307 307 307 307 306 305 306 306 307 308 309 309 310 312 314 316 317 320 323 326 328 328 330 329 327 326 326 324 323 323
307 311 309 308 308 310 310 307 306 307 309 313 311 309 307 306 307 306 306 306 305 306 306 307 308 308 308 309 311 315 317 319 321 324 326 327 327 328 328 328 327 325 323 321
308 309 308 307 308 310 307 303 302 309 309 311 309 305 307 305 306 306 305 305 304 305 306 306 306 307 308 308 310 312 316 318 319 320 321 326 328 326 328 328 327 324 323 323
308 307 307 306 308 307 308 307 308 309 310 308 308 305 299 303 306 306 306 304 303 304 304 304 306 307 307 308 309 311 314 319 317 319 324 325 323 327 325 327 326 325 324 324
306 307 307 307 308 307 306 309 308 308 310 313 305 311 300 303 303 304 304 304 303 303 303 303 304 306 307 308 308 310 312 317 318 318 319 325 324 323 326 327 326 325 324 325
307 307 306 306 307 306 306 308 308 310 311 305 301 303 301 300 303 303 304 302 301 302 303 303 303 304 306 308 310 311 312 312 319 319 319 318 324 324 326 326 326 326 325 324
306 308 307 307 307 306 307 306 301 300 303 307 306 304 303 302 305 305 303 300 300 302 300 301 302 303 304 306 308 310 311 312 312 312 312 314 321 322 320 323 321 321 320 319
306 306 307 307 306 307 308 307 303 301 308 307 306 306 305 305 303 304 300 299 299 299 299 300 300 302 303 304 305 308 310 311 310 312 311 312 313 314 313 314 313 313 313 312
307 308 306 306 306 306 307 307 306 309 302 308 306 306 305 304 301 300 299 299 299 298 298 298 298 300 303 303 304 304 307 309 309 310 311 311 311 311 310 311 311 311 311 311
307 306 305 306 306 306 307 305 307 303 303 305 307 308 307 306 303 299 298 298 299 298 298 298 298 298 299 301 302 303 304 304 304 305 308 309 310 310 309 310 310 310 309 308
306 304 304 306 307 306 307 308 307 305 306 310 309 306 302 304 303 298 298 299 299 298 298 297 297 298 298 298 298 301 303 303 302 303 303 304 304 305 306 306 307 307 307 307
306 304 303 305 303 303 305 307 306 305 305 305 308 306 303 302 301 299 299 299 299 298 298 297 297 297 297 297 298 298 299 301 302 302 302 302 302 302 303 303 303 303 303 303
303 297 294 299 302 304 306 305 306 305 305 307 306 304 300 300 299 299 299 299 299 298 297 297 297 297 297 297 297 297 298 298 299 301 302 302 302 302 302 302 302 302 302 302
304 300 300 302 304 304 305 305 305 306 304 306 306 305 303 299 297 297 298 299 299 298 297 297 297 297 296 297 297 297 297 297 298 298 298 299 300 300 300 301 301 300 300 300
303 298 299 302 302 303 304 304 304 306 306 306 304 303 303 301 298 298 299 299 298 298 297 297 297 297 296 296 297 297 297 297 297 297 298 298 298 298 298 298 298 298 298 298
301 296 296 296 298 300 300 302 302 303 304 304 305 305 301 303 300 299 299 299 298 298 297 297 297 297 296 296 296 296 296 296 296 297 297 297 297 297 297 297 297 297 297 297
301 295 291 293 293 292 296 297 299 301 301 303 304 304 301 300 299 300 299 300 299 298 297 297 297 297 297 296 296 296 296 296 296 296 296 296 296 296 296 296 296 296 296 295
295 291 285 291 288 297 301 296 296 298 299 301 301 300 301 303 305 306 304 301 300 299 298 297 297 297 296 296 296 296 296 296 296 296 296 296 296 296 295 295 295 294 294 294
297 297 286 292 285 295 300 295 296 297 298 297 300 301 301 303 302 302 304 302 301 300 299 298 297 296 296 296 296 296 296 296 296 296 296 295 295 294 294 294 294 294 293 293
296 295 294 281 290 295 300 296 296 296 297 295 298 299 299 299 300 300 304 303 301 300 298 298 297 296 296 295 296 296 296 296 295 295 295 294 294 293 293 293 293 293 293 293
299 297 293 281 287 292 294 295 296 296 302 298 297 298 300 298 302 305 305 302 301 300 298 297 297 297 296 296 296 296 296 295 295 294 293 293 293 293 293 293 293 294 294 293
300 299 296 291 290 297 295 295 295 297 297 298 300 299 300 302 303 305 306 302 300 299 298 298 297 296 296 296 296 296 295 294 293 293 293 293 293 293 293 294 294 293 293 294
299 297 296 296 299 297 296 297 298 298 298 298 299 300 300 301 302 304 305 302 300 300 298 298 297 296 296 296 296 295 294 293 293 293 293 293 293 293 293 293 293 293 294 293
294 295 295 296 299 296 298 299 298 298 299 299 299 299 301 301 303 303 304 302 300 299 298 298 297 296 296 296 296 295 294 293 293 293 293 293 293 293 293 293 293 293 293 293
295 296 295 295 297 297 298 300 301 300 299 298 298 298 299 302 302 303 304 302 301 300 298 298 297 296 296 296 296 294 293 292 292 293 293 293 293 293 292 293 293 293 293 293
294 296 298 299 299 301 302 304 304 301 300 300 299 298 298 299 302 302 303 304 302 299 299 298 297 296 296 296 295 294 292 292 292 293 292 293 293 293 293 293 292 293 292 292
Wind_Speed
3 5 2 1 1 3 2 1 3 4 3 3 3 1 5 14 17 19 22 22 22 27 28 24 21 21 19 17 16 14 19 21 24 26 33 38 45 43 39 34 35 26 21 21
4 1 3 1 3 3 3 1 4 5 4 3 3 5 3 7 9 18 19 21 20 27 28 28 24 22 17 17 15 12 9 13 20 23 25 34 41 41 43 33 30 24 21 17
2 1 2 0 2 1 2 4 2 5 5 2 4 3 4 3 10 19 18 19 22 25 26 28 30 28 20 17 15 15 12 14 19 22 24 23 25 40 41 34 31 25 22 18
3 0 1 1 2 3 3 5 4 3 3 2 4 4 4 5 5 12 18 21 23 27 27 32 31 30 28 22 18 13 11 11 19 15 18 27 26 23 33 28 28 26 25 23
1 2 0 2 2 2 5 4 3 2 3 1 4 1 6 5 5 8 15 17 21 27 29 31 31 28 30 27 25 28 20 3 12 17 7 18 30 30 28 28 29 27 26 24
4 1 2 3 1 3 3 2 4 1 0 3 2 4 5 2 4 6 10 16 18 22 26 29 31 31 28 28 32 34 36 29 8 1 9 17 18 17 20 27 26 23 25 27
2 1 2 2 2 1 5 4 3 4 4 4 4 2 7 4 2 2 8 12 13 16 19 22 25 32 32 31 31 34 38 40 37 33 30 22 17 20 25 23 21 20 19 16
3 4 3 1 1 1 2 3 4 4 2 4 2 4 4 4 5 2 3 6 10 13 15 16 19 19 23 28 30 32 35 35 32 33 36 38 39 35 33 33 33 32 30 27
3 3 0 1 2 2 1 2 0 2 3 1 3 4 6 5 5 2 1 4 7 11 14 15 19 19 20 21 23 27 30 31 29 29 28 32 35 36 34 35 33 31 28 26
3 1 1 0 2 2 2 3 3 3 2 4 4 4 4 6 7 6 4 1 4 7 10 14 18 20 20 19 17 18 21 22 22 24 28 31 31 28 27 28 28 29 29 25
3 2 2 1 3 5 1 1 2 3 4 3 3 5 5 8 8 9 9 5 2 5 7 11 14 17 18 19 20 20 19 19 20 20 21 22 22 20 19 22 21 18 15 14
2 3 3 5 0 1 1 3 4 3 4 3 1 6 2 6 9 15 12 8 5 4 5 8 11 14 16 18 20 21 20 20 19 19 19 21 21 20 19 20 19 17 15 14
6 0 2 6 5 3 3 5 4 3 2 5 4 5 1 4 5 12 15 10 7 5 5 6 8 11 14 15 17 18 19 20 19 17 18 18 19 19 19 18 18 17 17 17
7 3 5 5 3 2 4 4 6 5 3 3 7 3 5 7 8 12 15 15 11 7 5 6 7 9 11 13 14 15 17 17 17 17 18 19 19 19 19 19 18 17 18 16
4 4 2 4 6 3 5 6 8 11 8 7 4 8 7 10 13 23 20 17 16 14 11 8 6 8 9 10 11 12 14 16 17 16 18 20 19 18 18 17 17 17 16 15
2 1 2 4 3 3 6 13 15 15 13 14 14 21 8 6 13 18 23 21 20 19 14 9 6 7 8 9 9 10 12 14 15 17 19 19 18 17 17 17 17 16 16 15
6 5 3 5 4 6 9 14 19 9 7 18 16 13 5 5 12 24 29 28 25 20 17 13 9 6 5 6 8 8 10 12 12 14 15 16 15 15 15 15 14 13 13 13
6 5 3 3 4 2 6 3 3 15 12 17 13 7 10 17 25 29 33 34 28 22 18 14 12 10 7 6 6 8 9 10 9 9 10 11 11 11 11 12 12 13 12 12
4 5 2 3 3 8 4 4 6 7 7 18 22 19 13 16 13 16 26 35 31 26 19 14 11 11 9 8 8 9 8 8 8 7 8 9 9 8 8 7 8 10 11 12
5 5 4 2 4 6 4 3 6 3 6 7 21 15 14 16 5 8 25 32 32 25 20 18 15 12 11 10 10 10 8 8 7 7 7 6 6 5 6 8 11 12 12 14
5 2 6 3 3 9 10 6 8 5 5 2 12 17 21 8 12 9 18 31 31 27 24 20 17 13 12 12 12 10 9 8 8 7 6 4 4 5 6 9 11 12 13 14
9 9 5 4 2 10 16 8 9 6 3 3 4 15 25 25 14 11 16 32 33 30 27 23 20 17 16 15 12 11 10 10 8 7 5 3 2 4 7 8 9 11 14 18
5 8 8 11 8 4 33 9 24 4 5 5 6 7 17 24 26 18 18 33 34 33 30 24 20 19 19 17 14 13 12 11 9 7 4 2 1 2 4 7 10 14 17 19
4 7 3 4 9 17 22 32 21 24 14 6 9 8 10 21 25 23 23 34 36 35 32 27 24 23 21 19 16 15 14 12 10 8 6 4 2 4 8 11 14 16 18 21
5 16 8 5 10 8 23 35 31 34 21 21 15 11 11 15 24 27 27 33 37 37 33 30 27 25 22 20 18 17 15 13 12 10 8 5 4 6 9 12 14 16 20 21
9 7 8 10 12 15 13 17 28 35 34 34 25 20 18 16 22 29 29 29 36 38 35 32 28 25 24 22 21 19 17 15 14 12 9 7 7 8 9 11 14 17 18 19
Wind_Direction
24 70 115 206 164 147 157 217 268 261 264 299 285 40 3 360 2 346 345 344 336 342 350 352 359 346 335 319 306 281 264 249 246 243 247 243 228 227 216 217 214 209 217 237
18 104 210 196 193 189 207 146 289 288 265 242 355 327 307 0 357 358 349 350 354 351 357 -0 7 360 358 341 327 298 259 253 244 245 253 247 232 225 212 208 207 206 214 220
168 186 164 88 296 76 210 170 215 228 306 67 315 18 333 354 8 11 7 359 2 3 13 7 8 12 13 16 357 330 284 245 243 236 249 243 219 222 219 198 204 208 212 218
230 337 157 319 250 125 302 193 172 262 341 315 6 293 305 330 333 16 7 3 359 6 12 15 9 11 18 28 34 15 326 260 247 224 232 237 230 222 221 200 205 203 210 218
244 172 256 288 231 150 235 166 239 225 257 82 353 357 267 334 331 337 360 353 2 17 18 23 19 17 20 30 48 60 61 327 255 233 225 240 218 231 221 197 203 207 213 221
245 331 204 228 267 193 296 304 32 351 257 35 233 115 284 289 263 310 322 347 1 14 21 26 29 24 25 32 46 60 65 63 59 300 189 238 225 208 195 192 198 208 214 230
350 228 260 225 2 115 46 50 342 354 7 221 149 79 247 243 291 255 310 353 9 18 15 15 24 24 21 29 42 49 61 62 67 78 96 112 160 153 146 162 160 158 144 143
174 313 188 178 120 165 42 118 147 258 272 279 142 227 257 182 99 159 332 9 16 18 27 27 26 32 28 25 32 49 59 64 66 63 67 78 89 93 94 97 95 94 88 83
156 277 71 94 107 120 109 95 172 89 332 325 260 286 299 166 140 136 318 18 34 30 31 37 40 47 48 38 39 42 52 65 69 79 79 79 77 82 84 88 88 88 86 83
186 304 235 156 107 87 142 157 56 20 358 295 283 265 241 222 201 173 217 254 52 49 47 44 47 49 46 53 56 58 60 59 62 73 78 80 84 87 89 88 86 86 84 78
134 137 264 153 195 181 85 102 106 136 158 237 303 266 211 220 184 173 192 179 98 70 59 61 59 60 59 59 59 61 65 67 70 72 75 82 84 87 86 88 91 92 92 86
152 143 224 214 328 311 145 235 165 145 218 234 248 270 309 214 184 167 179 175 148 108 78 67 61 59 60 56 57 61 65 66 68 72 76 78 83 86 87 91 93 94 95 91
171 318 5 349 1 3 207 191 205 114 76 211 154 261 47 141 192 181 169 184 174 152 127 97 80 70 65 61 59 58 63 65 68 71 76 80 81 83 83 83 81 81 79 75
135 141 190 193 171 143 211 203 196 171 156 211 229 250 243 208 212 206 188 183 185 176 158 130 102 82 74 70 64 65 66 67 70 77 82 82 81 80 79 78 79 81 77 74
131 194 174 256 240 225 238 220 207 209 209 202 242 224 225 220 205 209 200 187 184 185 179 166 141 111 92 77 74 73 73 74 72 78 83 82 82 82 82 83 81 78 79 74
146 212 85 300 353 250 260 239 231 231 227 252 259 271 212 253 212 198 205 201 194 186 184 177 159 141 119 101 91 86 80 77 77 78 80 81 82 83 83 80 76 71 68 62
147 133 96 265 348 328 297 240 214 213 200 218 231 243 145 194 202 209 206 206 209 197 186 180 173 158 136 112 102 105 102 92 86 84 86 87 86 85 82 79 77 73 63 52
133 108 85 245 5 319 236 187 170 218 240 218 245 213 194 208 229 227 218 208 208 203 196 185 177 173 167 146 132 127 112 110 109 107 100 95 91 87 81 72 63 53 43 33
132 125 89 154 200 298 289 182 174 178 271 214 226 236 209 220 233 236 227 217 209 204 198 190 181 176 170 167 159 147 135 131 127 125 116 111 105 94 81 75 62 49 34 24
101 72 125 106 163 223 251 159 176 146 290 224 215 227 180 159 201 237 220 207 205 201 196 191 186 185 178 170 166 158 154 147 141 139 134 125 108 86 68 54 44 31 17 8
132 114 173 178 234 283 238 163 138 91 244 235 218 211 176 192 213 231 210 194 199 197 194 193 193 190 183 175 171 168 172 170 168 165 154 130 98 71 51 38 27 13 3 357
162 157 182 125 164 265 161 124 172 208 198 217 258 214 209 206 208 213 202 193 191 194 195 197 194 192 188 183 188 187 185 184 181 175 169 144 78 46 34 21 1 353 352 351
198 181 175 187 210 229 183 195 201 203 216 218 246 254 225 222 224 222 207 195 194 196 198 199 197 196 193 195 197 197 191 193 196 197 191 155 53 13 4 354 347 346 347 342
240 168 178 114 235 231 226 224 229 224 224 229 254 260 238 223 219 217 208 197 197 198 200 200 197 200 201 202 203 199 201 202 208 204 203 213 274 330 342 341 347 343 339 337
188 150 169 265 266 279 257 233 232 231 233 235 232 241 251 233 219 218 208 203 202 201 201 204 205 201 203 209 207 203 208 212 213 214 222 238 280 317 329 334 338 340 337 336
192 171 175 215 195 198 237 236 232 227 230 231 234 237 242 238 226 219 217 214 208 204 204 206 207 204 202 208 209 208 212 219 217 219 230 249 282 305 318 332 337 336 336 335